M I D A S
Marine Information and Data Acquisition System
Tripno 917 of the Zeeleeuw from 2005-06-15 06:13:24 to 2005-06-15 14:31:44
Back to CruiseResearch ActivitiesStationsMapUnderway DataData graphs

EquipmentUnitsComments
TimeDGPSUTC
LatitudeDGPSDM.mWGS84
LongitudeDGPSDM.mWGS84
SpeedMeteo Stationm/sRelative wind speed
DirectionMeteo StationdegRelative wind direction
TemperatureMeteo Stationdeg CelciusAir temperature
PressureMeteo StationPaAtmospheric pressure
HumidityMeteo Station%Relative humidity
Missing or incorrect values are displayed as -999
Metereological data collected by the RV Zeeleeuw from 2005-06-15 06:12:57 to 2005-06-15 14:43:59
                                                                                    Next 1000 lines
Time Latitude Longitude Speed Direction Temperature Pressure Humidity
2005-06-15 06:13:06 51°13.599 2°56.109 3.6 59 13.7 101600 64
2005-06-15 06:13:12 51°13.598 2°56.109 4.1 66 13.7 101600 64
2005-06-15 06:13:17 51°13.598 2°56.109 3.2 78 13.7 101610 64
2005-06-15 06:13:22 51°13.598 2°56.109 2.9 79 13.7 101610 64
2005-06-15 06:13:27 51°13.598 2°56.108 2.8 75 13.7 101610 64
2005-06-15 06:13:32 51°13.598 2°56.107 2.7 93 13.7 101600 63
2005-06-15 06:13:37 51°13.598 2°56.105 2.9 87 13.7 101610 63
2005-06-15 06:13:42 51°13.599 2°56.102 3.1 88 13.7 101610 63
2005-06-15 06:13:47 51°13.599 2°56.099 2.4 93 13.7 101610 64
2005-06-15 06:13:52 51°13.6 2°56.094 2.2 88 13.7 101610 64
2005-06-15 06:13:57 51°13.601 2°56.09 2 94 13.8 101610 64
2005-06-15 06:14:02 51°13.602 2°56.085 2.4 78 13.8 101610 64
2005-06-15 06:14:07 51°13.603 2°56.079 2.5 81 13.7 101610 64
2005-06-15 06:14:13 51°13.605 2°56.073 2.9 80 13.7 101610 64
2005-06-15 06:14:17 51°13.606 2°56.068 2.5 76 13.8 101610 64
2005-06-15 06:14:22 51°13.607 2°56.063 2.4 70 13.8 101610 64
2005-06-15 06:14:28 51°13.608 2°56.06 2.3 49 13.8 101610 64
2005-06-15 06:14:33 51°13.608 2°56.059 2.3 60 13.8 101610 64
2005-06-15 06:14:37 51°13.608 2°56.059 3.2 55 13.8 101610 64
2005-06-15 06:14:42 51°13.608 2°56.061 3.7 41 13.8 101610 64
2005-06-15 06:14:47 51°13.607 2°56.062 4.2 35 13.8 101610 63
2005-06-15 06:14:52 51°13.606 2°56.064 4.1 27 13.8 101610 63
2005-06-15 06:14:57 51°13.605 2°56.067 4.5 32 13.8 101610 63
2005-06-15 06:15:02 51°13.604 2°56.07 4.9 47 13.8 101610 63
2005-06-15 06:15:08 51°13.602 2°56.073 5.1 37 13.8 101610 63
2005-06-15 06:15:12 51°13.6 2°56.076 5.4 29 13.8 101610 63
2005-06-15 06:15:17 51°13.598 2°56.08 4.4 27 13.8 101610 63
2005-06-15 06:15:22 51°13.596 2°56.084 5.6 18 13.8 101610 63
2005-06-15 06:15:26 51°13.594 2°56.087 5.4 20 13.8 101610 62
2005-06-15 06:15:32 51°13.592 2°56.093 5.3 22 13.8 101610 62
2005-06-15 06:15:37 51°13.589 2°56.097 5.7 30 13.8 101610 62
2005-06-15 06:15:42 51°13.586 2°56.101 6 30 13.8 101610 62
2005-06-15 06:15:47 51°13.584 2°56.106 5.8 33 13.8 101610 62
2005-06-15 06:15:52 51°13.58 2°56.111 4.9 36 13.8 101610 62
2005-06-15 06:15:57 51°13.578 2°56.116 5.5 38 13.8 101610 62
2005-06-15 06:16:02 51°13.574 2°56.121 6.1 35 13.8 101610 62
2005-06-15 06:16:07 51°13.571 2°56.127 5.3 36 13.8 101610 62
2005-06-15 06:16:12 51°13.568 2°56.131 4.8 41 13.8 101600 62
2005-06-15 06:16:17 51°13.565 2°56.137 4.1 27 13.8 101610 62
2005-06-15 06:16:22 51°13.562 2°56.142 4.2 5 13.8 101610 62
2005-06-15 06:16:26 51°13.559 2°56.147 4.2 33 13.8 101610 61
2005-06-15 06:16:30 51°13.556 2°56.151 2.9 56 13.8 101610 61
2005-06-15 06:16:37 51°13.553 2°56.16 4.8 29 13.8 101610 61
2005-06-15 06:16:42 51°13.551 2°56.166 3.8 79 13.8 101610 62
2005-06-15 06:16:47 51°13.549 2°56.172 3.1 49 13.8 101610 63
2005-06-15 06:16:52 51°13.548 2°56.18 3.6 38 13.8 101610 63
2005-06-15 06:16:57 51°13.547 2°56.187 2.9 28 13.8 101610 63
2005-06-15 06:17:01 51°13.547 2°56.193 4.3 47 13.8 101610 63
2005-06-15 06:17:06 51°13.547 2°56.201 3.1 62 13.8 101610 62
2005-06-15 06:17:12 51°13.548 2°56.21 4 76 13.8 101610 62
2005-06-15 06:17:17 51°13.549 2°56.216 3.7 86 13.8 101610 62
2005-06-15 06:17:22 51°13.551 2°56.223 2.5 72 13.8 101610 62
2005-06-15 06:17:27 51°13.552 2°56.229 2.3 83 13.8 101610 62
2005-06-15 06:17:33 51°13.553 2°56.233 3.1 98 13.8 101610 62
2005-06-15 06:17:37 51°13.554 2°56.236 3 110 13.8 101610 62
2005-06-15 06:17:42 51°13.555 2°56.238 2.5 129 13.8 101610 62
2005-06-15 06:17:47 51°13.555 2°56.239 3.6 131 13.8 101610 62
2005-06-15 06:17:52 51°13.555 2°56.24 3.5 143 13.8 101610 62
2005-06-15 06:17:57 51°13.555 2°56.24 3.7 153 13.9 101610 63
2005-06-15 06:18:01 51°13.555 2°56.239 3.6 148 13.9 101610 63
2005-06-15 06:18:06 51°13.554 2°56.238 3.6 145 13.9 101610 62
2005-06-15 06:18:12 51°13.552 2°56.236 3.6 141 13.9 101610 62
2005-06-15 06:18:18 51°13.551 2°56.233 4.3 158 13.8 101610 62
2005-06-15 06:18:22 51°13.549 2°56.23 3.6 143 13.8 101610 62
2005-06-15 06:18:27 51°13.548 2°56.228 3.3 145 13.8 101610 62
2005-06-15 06:18:33 51°13.546 2°56.225 3.3 151 13.8 101610 62
2005-06-15 06:18:38 51°13.545 2°56.223 2.7 131 13.8 101610 62
2005-06-15 06:18:43 51°13.545 2°56.223 2.3 137 13.8 101610 62
2005-06-15 06:18:48 51°13.545 2°56.223 2.4 162 13.8 101610 62
2005-06-15 06:18:53 51°13.546 2°56.224 2.6 140 13.8 101610 62
2005-06-15 06:18:57 51°13.547 2°56.225 2.2 157 13.8 101610 62
2005-06-15 06:19:02 51°13.549 2°56.227 2.7 164 13.8 101610 62
2005-06-15 06:19:07 51°13.551 2°56.229 2.1 166 13.8 101610 62
2005-06-15 06:19:13 51°13.552 2°56.23 2.6 154 13.8 101610 62
2005-06-15 06:19:17 51°13.552 2°56.23 2.6 160 13.8 101610 62
2005-06-15 06:19:22 51°13.552 2°56.23 2.5 162 13.8 101610 62
2005-06-15 06:19:26 51°13.551 2°56.23 2.2 162 13.9 101610 62
2005-06-15 06:19:32 51°13.549 2°56.23 3.2 158 13.9 101610 62
2005-06-15 06:19:37 51°13.547 2°56.23 3.5 172 13.8 101610 62
2005-06-15 06:19:42 51°13.544 2°56.229 4 165 13.8 101610 62
2005-06-15 06:19:48 51°13.542 2°56.229 3.9 174 13.8 101610 62
2005-06-15 06:19:53 51°13.54 2°56.229 3.1 181 13.9 101610 62
2005-06-15 06:19:57 51°13.54 2°56.229 3.2 171 13.9 101610 62
2005-06-15 06:20:02 51°13.541 2°56.229 2.3 179 13.9 101610 62
2005-06-15 06:20:08 51°13.543 2°56.23 1.7 166 13.9 101610 62
2005-06-15 06:20:13 51°13.545 2°56.229 2.1 183 13.8 101610 61
2005-06-15 06:20:18 51°13.546 2°56.229 2.9 183 13.8 101610 61
2005-06-15 06:20:23 51°13.546 2°56.229 2.6 194 13.8 101610 61
2005-06-15 06:20:28 51°13.544 2°56.229 3.7 202 13.8 101610 61
2005-06-15 06:20:32 51°13.543 2°56.23 3.6 214 13.8 101610 61
2005-06-15 06:20:37 51°13.541 2°56.231 3.6 196 13.9 101610 62
2005-06-15 06:20:42 51°13.539 2°56.233 3 199 13.9 101610 62
2005-06-15 06:20:47 51°13.537 2°56.234 3.2 198 13.9 101620 63
2005-06-15 06:20:52 51°13.536 2°56.236 3.4 205 13.9 101620 63
2005-06-15 06:20:58 51°13.534 2°56.237 1.9 187 14 101620 63
2005-06-15 06:21:02 51°13.533 2°56.237 2.6 198 14 101620 63
2005-06-15 06:21:08 51°13.534 2°56.237 2.8 192 14 101620 62
2005-06-15 06:21:12 51°13.535 2°56.235 2.1 236 14 101620 62
2005-06-15 06:21:17 51°13.538 2°56.232 1.7 252 14.1 101610 62
2005-06-15 06:21:22 51°13.541 2°56.228 2.9 276 14.1 101610 62
2005-06-15 06:21:27 51°13.544 2°56.222 2.9 279 14.1 101620 62
2005-06-15 06:21:32 51°13.547 2°56.214 3 298 14.1 101620 62
2005-06-15 06:21:37 51°13.549 2°56.206 2.9 294 14.1 101620 62
2005-06-15 06:21:41 51°13.551 2°56.2 2.1 298 14.1 101620 62
2005-06-15 06:21:47 51°13.553 2°56.19 1.6 308 14.1 101610 62
2005-06-15 06:21:52 51°13.554 2°56.18 1.6 322 14.1 101610 62
2005-06-15 06:21:57 51°13.555 2°56.17 2.8 305 14.1 101620 61
2005-06-15 06:22:01 51°13.556 2°56.16 2.4 325 14.1 101620 61
2005-06-15 06:22:08 51°13.558 2°56.145 2.7 324 14.2 101620 61
2005-06-15 06:22:12 51°13.56 2°56.134 3.4 322 14.2 101620 61
2005-06-15 06:22:17 51°13.562 2°56.122 3.2 302 14.2 101610 61
2005-06-15 06:22:22 51°13.565 2°56.108 3 292 14.2 101610 61
2005-06-15 06:22:26 51°13.567 2°56.099 2.8 304 14.2 101610 61
2005-06-15 06:22:32 51°13.572 2°56.081 2.9 301 14.2 101610 61
2005-06-15 06:22:37 51°13.576 2°56.068 2 300 14.2 101610 61
2005-06-15 06:22:42 51°13.581 2°56.055 2.6 341 14.2 101610 61
2005-06-15 06:22:46 51°13.585 2°56.044 3.2 309 14.2 101610 61
2005-06-15 06:22:52 51°13.59 2°56.029 3.3 327 14.2 101610 61
2005-06-15 06:22:57 51°13.595 2°56.019 3 314 14.2 101620 61
2005-06-15 06:23:01 51°13.6 2°56.009 3 317 14.2 101620 61
2005-06-15 06:23:06 51°13.606 2°55.996 2.3 329 14.2 101620 61
2005-06-15 06:23:12 51°13.612 2°55.982 2.2 342 14.2 101620 61
2005-06-15 06:23:17 51°13.618 2°55.971 2.3 327 14.2 101610 61
2005-06-15 06:23:22 51°13.624 2°55.957 3 326 14.2 101610 61
2005-06-15 06:23:27 51°13.629 2°55.946 2.6 331 14.3 101620 61
2005-06-15 06:23:32 51°13.636 2°55.933 3.3 313 14.3 101620 61
2005-06-15 06:23:37 51°13.641 2°55.922 3.1 300 14.3 101610 62
2005-06-15 06:23:42 51°13.647 2°55.908 2.2 319 14.3 101610 62
2005-06-15 06:23:46 51°13.652 2°55.898 2.9 43 14.3 101610 62
2005-06-15 06:23:52 51°13.659 2°55.883 2.2 315 14.3 101610 62
2005-06-15 06:23:57 51°13.665 2°55.872 2.8 322 14.3 101610 61
2005-06-15 06:24:02 51°13.671 2°55.86 3.2 352 14.3 101610 61
2005-06-15 06:24:07 51°13.678 2°55.846 2.9 342 14.3 101610 61
2005-06-15 06:24:12 51°13.684 2°55.835 3.3 319 14.3 101610 61
2005-06-15 06:24:17 51°13.691 2°55.823 3.6 229 14.3 101610 61
2005-06-15 06:24:21 51°13.696 2°55.814 2.8 311 14.3 101610 61
2005-06-15 06:24:27 51°13.704 2°55.799 3.6 309 14.3 101610 61
2005-06-15 06:24:33 51°13.712 2°55.785 2.8 310 14.3 101610 61
2005-06-15 06:24:37 51°13.717 2°55.775 3.4 293 14.3 101610 61
2005-06-15 06:24:41 51°13.723 2°55.765 3.1 295 14.3 101610 61
2005-06-15 06:24:47 51°13.731 2°55.752 3.2 278 14.3 101610 61
2005-06-15 06:24:53 51°13.74 2°55.739 2.3 289 14.3 101610 61
2005-06-15 06:24:57 51°13.746 2°55.73 2.9 276 14.3 101610 61
2005-06-15 06:25:02 51°13.755 2°55.718 2.8 283 14.3 101610 61
2005-06-15 06:25:06 51°13.761 2°55.71 2.3 275 14.3 101610 61
2005-06-15 06:25:12 51°13.772 2°55.697 1.9 265 14.3 101610 61
2005-06-15 06:25:17 51°13.781 2°55.686 1.8 263 14.4 101610 61
2005-06-15 06:25:22 51°13.79 2°55.676 1.9 293 14.4 101610 61
2005-06-15 06:25:26 51°13.797 2°55.669 1.3 302 14.3 101610 61
2005-06-15 06:25:32 51°13.81 2°55.656 1.4 285 14.3 101610 61
2005-06-15 06:25:37 51°13.82 2°55.648 1.3 291 14.4 101610 60
2005-06-15 06:25:42 51°13.83 2°55.639 1.7 334 14.4 101610 60
2005-06-15 06:25:46 51°13.84 2°55.631 1.1 347 14.4 101610 60
2005-06-15 06:25:52 51°13.854 2°55.621 1.2 314 14.4 101610 60
2005-06-15 06:25:57 51°13.864 2°55.613 1 305 14.4 101610 60
2005-06-15 06:26:02 51°13.877 2°55.605 1.3 328 14.4 101610 60
2005-06-15 06:26:07 51°13.888 2°55.598 1.4 342 14.4 101610 60
2005-06-15 06:26:13 51°13.903 2°55.589 1.3 329 14.4 101610 60
2005-06-15 06:26:17 51°13.913 2°55.583 1.3 358 14.4 101610 60
2005-06-15 06:26:22 51°13.926 2°55.575 1.1 358 14.4 101610 60
2005-06-15 06:26:26 51°13.936 2°55.569 1 359 14.4 101610 60
2005-06-15 06:26:32 51°13.951 2°55.562 1.3 340 14.4 101610 60
2005-06-15 06:26:37 51°13.964 2°55.554 1.8 350 14.4 101610 61
2005-06-15 06:26:42 51°13.975 2°55.548 2.1 319 14.4 101610 61
2005-06-15 06:26:46 51°13.986 2°55.541 1.5 354 14.4 101610 60
2005-06-15 06:26:52 51°14.001 2°55.531 1.4 346 14.4 101610 60
2005-06-15 06:26:57 51°14.012 2°55.524 2 331 14.4 101610 60
2005-06-15 06:27:02 51°14.026 2°55.514 2 312 14.4 101610 60
2005-06-15 06:27:06 51°14.035 2°55.507 1.7 300 14.4 101610 60
2005-06-15 06:27:12 51°14.05 2°55.497 1.3 278 14.4 101610 60
2005-06-15 06:27:18 51°14.063 2°55.487 0.9 298 14.4 101610 60
2005-06-15 06:27:22 51°14.074 2°55.48 0.7 318 14.4 101610 60
2005-06-15 06:27:26 51°14.084 2°55.472 0.7 316 14.4 101610 60
2005-06-15 06:27:32 51°14.097 2°55.46 0.9 299 14.4 101610 60
2005-06-15 06:27:38 51°14.109 2°55.449 0.7 294 14.4 101610 60
2005-06-15 06:27:42 51°14.118 2°55.44 0.5 283 14.4 101610 60
2005-06-15 06:27:46 51°14.126 2°55.431 0.8 299 14.4 101610 60
2005-06-15 06:27:52 51°14.137 2°55.42 1.6 301 14.4 101610 60
2005-06-15 06:27:57 51°14.147 2°55.409 2.5 317 14.4 101610 60
2005-06-15 06:28:02 51°14.158 2°55.397 2.4 324 14.4 101610 60
2005-06-15 06:28:08 51°14.169 2°55.385 2.3 314 14.4 101610 60
2005-06-15 06:28:10 51°14.174 2°55.379 2.3 291 14.4 101610 60
2005-06-15 06:28:17 51°14.187 2°55.363 1.7 296 14.5 101610 60
2005-06-15 06:28:22 51°14.197 2°55.35 2.3 296 14.5 101610 60
2005-06-15 06:28:27 51°14.207 2°55.337 1.8 294 14.5 101610 60
2005-06-15 06:28:32 51°14.216 2°55.324 2.4 309 14.5 101610 60
2005-06-15 06:28:37 51°14.225 2°55.312 2 309 14.5 101610 61
2005-06-15 06:28:42 51°14.235 2°55.296 1.8 307 14.5 101610 61
2005-06-15 06:28:47 51°14.244 2°55.281 1.7 312 14.5 101610 60
2005-06-15 06:28:52 51°14.253 2°55.266 1.9 332 14.5 101610 60
2005-06-15 06:28:57 51°14.262 2°55.252 2.2 323 14.5 101610 60
2005-06-15 06:29:02 51°14.272 2°55.235 3.1 328 14.5 101610 60
2005-06-15 06:29:06 51°14.279 2°55.222 3.6 331 14.5 101610 60
2005-06-15 06:29:12 51°14.29 2°55.203 3.9 323 14.5 101610 60
2005-06-15 06:29:17 51°14.298 2°55.188 4.1 329 14.5 101610 60
2005-06-15 06:29:22 51°14.309 2°55.17 4.3 306 14.5 101610 60
2005-06-15 06:29:27 51°14.319 2°55.152 4.1 301 14.5 101610 60
2005-06-15 06:29:32 51°14.328 2°55.136 2.4 315 14.5 101600 60
2005-06-15 06:29:37 51°14.338 2°55.118 2.4 328 14.6 101600 60
2005-06-15 06:29:42 51°14.35 2°55.098 3.3 349 14.6 101600 60
2005-06-15 06:29:46 51°14.358 2°55.083 2.9 347 14.6 101610 60
2005-06-15 06:29:52 51°14.37 2°55.063 2.8 342 14.6 101610 60
2005-06-15 06:29:57 51°14.382 2°55.044 4.5 348 14.5 101600 59
2005-06-15 06:30:02 51°14.394 2°55.024 4.4 346 14.5 101600 59
2005-06-15 06:30:07 51°14.405 2°55.008 4.6 339 14.5 101600 59
2005-06-15 06:30:12 51°14.42 2°54.989 5 346 14.5 101600 59
2005-06-15 06:30:17 51°14.433 2°54.975 4.5 347 14.6 101610 59
2005-06-15 06:30:21 51°14.447 2°54.961 4.5 349 14.6 101610 59
2005-06-15 06:30:27 51°14.465 2°54.946 4.3 349 14.6 101600 60
2005-06-15 06:30:33 51°14.484 2°54.93 4.4 359 14.6 101600 60
2005-06-15 06:30:36 51°14.496 2°54.921 4.9 358 14.6 101600 60
2005-06-15 06:30:42 51°14.516 2°54.907 4.4 353 14.6 101600 60
2005-06-15 06:30:47 51°14.533 2°54.894 4.1 356 14.6 101600 60
2005-06-15 06:30:53 51°14.551 2°54.879 4.2 1 14.6 101600 60
2005-06-15 06:30:57 51°14.564 2°54.868 4.2 357 14.6 101600 61
2005-06-15 06:31:02 51°14.582 2°54.851 4.1 349 14.6 101600 61
2005-06-15 06:31:07 51°14.599 2°54.836 3.9 349 14.6 101600 61
2005-06-15 06:31:13 51°14.616 2°54.819 4.3 348 14.6 101600 61
2005-06-15 06:31:17 51°14.631 2°54.806 4.6 345 14.6 101600 61
2005-06-15 06:31:21 51°14.642 2°54.795 4.3 352 14.6 101600 61
2005-06-15 06:31:26 51°14.658 2°54.779 4.4 350 14.5 101600 61
2005-06-15 06:31:33 51°14.681 2°54.758 3.9 348 14.5 101600 61
2005-06-15 06:31:37 51°14.694 2°54.746 4.1 355 14.5 101600 61
2005-06-15 06:31:42 51°14.712 2°54.73 3.9 350 14.5 101600 61
2005-06-15 06:31:47 51°14.729 2°54.715 4 347 14.5 101600 61
2005-06-15 06:31:52 51°14.744 2°54.702 3.3 342 14.5 101600 62
2005-06-15 06:31:57 51°14.76 2°54.686 3.5 351 14.5 101600 62
2005-06-15 06:32:02 51°14.778 2°54.67 3.8 345 14.5 101600 62
2005-06-15 06:32:06 51°14.791 2°54.658 3.9 345 14.5 101600 62
2005-06-15 06:32:12 51°14.811 2°54.64 3.7 345 14.5 101600 62
2005-06-15 06:32:17 51°14.826 2°54.626 3.2 338 14.5 101600 62
2005-06-15 06:32:22 51°14.844 2°54.61 3.1 335 14.5 101600 62
2005-06-15 06:32:26 51°14.857 2°54.598 2.2 343 14.5 101600 63
2005-06-15 06:32:32 51°14.876 2°54.579 3.8 337 14.5 101600 63
2005-06-15 06:32:37 51°14.891 2°54.565 4 330 14.5 101600 63
2005-06-15 06:32:42 51°14.909 2°54.548 3.8 330 14.5 101600 63
2005-06-15 06:32:46 51°14.92 2°54.537 3.7 332 14.5 101600 63
2005-06-15 06:32:52 51°14.941 2°54.516 3.3 340 14.5 101600 63
2005-06-15 06:32:57 51°14.955 2°54.502 3.4 333 14.5 101600 63
2005-06-15 06:33:02 51°14.973 2°54.485 3.7 329 14.5 101600 63
2005-06-15 06:33:06 51°14.984 2°54.473 3.9 335 14.5 101600 63
2005-06-15 06:33:12 51°15.004 2°54.452 4.3 333 14.5 101600 63
2005-06-15 06:33:17 51°15.018 2°54.437 4.4 333 14.5 101600 63
2005-06-15 06:33:22 51°15.035 2°54.419 4.1 330 14.5 101600 63
2005-06-15 06:33:27 51°15.051 2°54.402 3.9 332 14.5 101600 62
2005-06-15 06:33:33 51°15.068 2°54.384 3.5 339 14.5 101600 62
2005-06-15 06:33:37 51°15.081 2°54.371 4.2 345 14.4 101600 63
2005-06-15 06:33:42 51°15.097 2°54.355 4.2 336 14.4 101600 63
2005-06-15 06:33:47 51°15.113 2°54.338 4.5 326 14.4 101600 62
2005-06-15 06:33:52 51°15.13 2°54.32 3.8 326 14.4 101600 62
2005-06-15 06:33:57 51°15.145 2°54.305 4 328 14.4 101590 62
2005-06-15 06:34:02 51°15.163 2°54.288 4 325 14.4 101590 62
2005-06-15 06:34:06 51°15.176 2°54.275 3.8 332 14.4 101600 63
2005-06-15 06:34:13 51°15.197 2°54.254 3.8 327 14.4 101600 63
2005-06-15 06:34:17 51°15.21 2°54.241 3.6 332 14.4 101590 62
2005-06-15 06:34:22 51°15.228 2°54.223 3.8 326 14.4 101590 62
2005-06-15 06:34:27 51°15.243 2°54.209 3.7 330 14.4 101600 62
2005-06-15 06:34:32 51°15.261 2°54.192 3.7 324 14.4 101600 62
2005-06-15 06:34:37 51°15.276 2°54.177 3.5 335 14.4 101600 62
2005-06-15 06:34:42 51°15.292 2°54.161 4.1 324 14.4 101600 62
2005-06-15 06:34:46 51°15.307 2°54.146 3.7 324 14.4 101600 62
2005-06-15 06:34:52 51°15.326 2°54.126 3.3 331 14.4 101600 62
2005-06-15 06:34:57 51°15.341 2°54.112 3.2 328 14.3 101600 62
2005-06-15 06:35:02 51°15.359 2°54.094 3.1 330 14.3 101600 62
2005-06-15 06:35:07 51°15.376 2°54.078 2.8 331 14.3 101600 62
2005-06-15 06:35:12 51°15.392 2°54.062 3.7 334 14.3 101600 62
2005-06-15 06:35:17 51°15.407 2°54.048 3.1 321 14.3 101590 62
2005-06-15 06:35:22 51°15.424 2°54.032 3.8 337 14.3 101590 62
2005-06-15 06:35:26 51°15.438 2°54.018 3.4 329 14.3 101600 62
2005-06-15 06:35:32 51°15.459 2°53.999 3.3 330 14.3 101600 62
2005-06-15 06:35:37 51°15.474 2°53.986 2.8 328 14.3 101600 62
2005-06-15 06:35:42 51°15.493 2°53.97 3.3 336 14.3 101600 62
2005-06-15 06:35:46 51°15.507 2°53.96 2.8 334 14.3 101600 62
2005-06-15 06:35:53 51°15.53 2°53.942 2.6 330 14.3 101600 62
2005-06-15 06:35:57 51°15.546 2°53.93 2.4 328 14.3 101600 62
2005-06-15 06:36:02 51°15.563 2°53.916 2.6 325 14.3 101600 62
2005-06-15 06:36:06 51°15.577 2°53.906 2.3 315 14.3 101600 62
2005-06-15 06:36:12 51°15.598 2°53.889 2.5 330 14.3 101600 62
2005-06-15 06:36:18 51°15.617 2°53.874 2.2 324 14.3 101600 62
2005-06-15 06:36:21 51°15.629 2°53.865 2.6 329 14.3 101600 62
2005-06-15 06:36:26 51°15.646 2°53.852 3 321 14.3 101600 62
2005-06-15 06:36:33 51°15.669 2°53.834 2.6 314 14.3 101600 62
2005-06-15 06:36:37 51°15.685 2°53.822 2.5 325 14.3 101600 61
2005-06-15 06:36:42 51°15.702 2°53.809 2.5 321 14.3 101600 61
2005-06-15 06:36:47 51°15.717 2°53.797 2.5 313 14.3 101600 61
2005-06-15 06:36:52 51°15.736 2°53.782 2.1 42 14.3 101600 61
2005-06-15 06:36:57 51°15.752 2°53.77 2.6 309 14.3 101600 62
2005-06-15 06:37:02 51°15.771 2°53.755 2.1 332 14.3 101600 62
2005-06-15 06:37:06 51°15.785 2°53.745 2.7 328 14.4 101600 63
2005-06-15 06:37:12 51°15.805 2°53.729 2.1 316 14.4 101600 63
2005-06-15 06:37:17 51°15.823 2°53.716 2 316 14.4 101600 63
2005-06-15 06:37:22 51°15.84 2°53.703 2.2 325 14.4 101600 63
2005-06-15 06:37:26 51°15.852 2°53.694 2.4 321 14.4 101600 63
2005-06-15 06:37:33 51°15.876 2°53.676 1.7 305 14.4 101600 63
2005-06-15 06:37:37 51°15.89 2°53.666 1.6 306 14.4 101600 62
2005-06-15 06:37:42 51°15.909 2°53.652 1.7 310 14.4 101600 62
2005-06-15 06:37:48 51°15.928 2°53.637 2 316 14.4 101600 62
2005-06-15 06:37:52 51°15.944 2°53.625 1.7 326 14.4 101600 62
2005-06-15 06:37:57 51°15.959 2°53.613 1.8 336 14.4 101600 62
2005-06-15 06:38:02 51°15.978 2°53.599 1.9 338 14.4 101600 62
2005-06-15 06:38:07 51°15.995 2°53.586 1.9 342 14.4 101600 62
2005-06-15 06:38:12 51°16.012 2°53.573 1.6 328 14.4 101600 62
2005-06-15 06:38:17 51°16.029 2°53.56 1.5 325 14.4 101600 62
2005-06-15 06:38:22 51°16.047 2°53.547 1.5 329 14.4 101600 62
2005-06-15 06:38:26 51°16.061 2°53.536 1.3 321 14.5 101600 63
2005-06-15 06:38:33 51°16.083 2°53.52 1.7 329 14.5 101600 63
2005-06-15 06:38:37 51°16.098 2°53.508 1.9 329 14.5 101600 63
2005-06-15 06:38:42 51°16.116 2°53.495 1.9 332 14.5 101600 63
2005-06-15 06:38:46 51°16.129 2°53.485 1.8 333 14.5 101600 63
2005-06-15 06:38:52 51°16.15 2°53.469 1.5 339 14.5 101600 63
2005-06-15 06:38:57 51°16.165 2°53.457 2.2 327 14.5 101600 63
2005-06-15 06:39:02 51°16.185 2°53.443 2.4 334 14.5 101600 63
2005-06-15 06:39:07 51°16.2 2°53.432 2.2 315 14.5 101600 62
2005-06-15 06:39:12 51°16.219 2°53.418 2.1 318 14.5 101600 62
2005-06-15 06:39:17 51°16.235 2°53.406 2.2 317 14.5 101600 62
2005-06-15 06:39:22 51°16.254 2°53.392 2.1 315 14.5 101600 62
2005-06-15 06:39:27 51°16.269 2°53.381 2.1 42 14.5 101600 63
2005-06-15 06:39:32 51°16.289 2°53.367 1.7 227 14.5 101600 63
2005-06-15 06:39:37 51°16.304 2°53.356 1.9 328 14.5 101600 63
2005-06-15 06:39:42 51°16.323 2°53.341 2.2 334 14.5 101600 63
2005-06-15 06:39:47 51°16.34 2°53.328 2.1 329 14.5 101600 62
2005-06-15 06:39:52 51°16.357 2°53.316 2.1 316 14.5 101600 62
2005-06-15 06:39:57 51°16.373 2°53.304 2.3 311 14.5 101600 62
2005-06-15 06:40:02 51°16.392 2°53.29 2.4 229 14.5 101600 62
2005-06-15 06:40:07 51°16.407 2°53.278 1.6 42 14.5 101600 63
2005-06-15 06:40:13 51°16.428 2°53.262 1.9 229 14.5 101600 63
2005-06-15 06:40:17 51°16.442 2°53.252 2.2 310 14.6 101600 63
2005-06-15 06:40:22 51°16.461 2°53.237 2.3 323 14.6 101600 63
2005-06-15 06:40:27 51°16.476 2°53.225 2.3 39 14.6 101590 63
2005-06-15 06:40:33 51°16.497 2°53.209 2.4 332 14.6 101590 63
2005-06-15 06:40:37 51°16.51 2°53.198 2.5 325 14.6 101590 63
2005-06-15 06:40:41 51°16.523 2°53.187 2.1 313 14.6 101590 63
2005-06-15 06:40:46 51°16.54 2°53.173 2.2 306 14.6 101590 63
2005-06-15 06:40:52 51°16.562 2°53.155 2 297 14.6 101590 63
2005-06-15 06:40:57 51°16.578 2°53.142 2 283 14.6 101590 63
2005-06-15 06:41:02 51°16.596 2°53.127 1.8 285 14.6 101590 63
2005-06-15 06:41:08 51°16.615 2°53.112 1.9 281 14.6 101590 63
2005-06-15 06:41:12 51°16.63 2°53.1 1.6 279 14.6 101590 63
2005-06-15 06:41:17 51°16.646 2°53.088 2 272 14.6 101590 64
2005-06-15 06:41:22 51°16.663 2°53.074 1.9 277 14.6 101590 64
2005-06-15 06:41:26 51°16.678 2°53.062 1.7 284 14.6 101590 63
2005-06-15 06:41:32 51°16.698 2°53.045 2 276 14.6 101590 63
2005-06-15 06:41:37 51°16.713 2°53.033 1.7 282 14.6 101590 63
2005-06-15 06:41:42 51°16.73 2°53.019 1.1 278 14.6 101590 63
2005-06-15 06:41:46 51°16.745 2°53.007 1.4 292 14.7 101590 63
2005-06-15 06:41:52 51°16.764 2°52.992 1.5 292 14.7 101590 63
2005-06-15 06:41:57 51°16.781 2°52.978 1.4 287 14.6 101590 62
2005-06-15 06:42:02 51°16.799 2°52.962 1.5 279 14.6 101590 62
2005-06-15 06:42:06 51°16.811 2°52.953 1.6 292 14.6 101590 62
2005-06-15 06:42:12 51°16.833 2°52.934 2 313 14.6 101590 62
2005-06-15 06:42:17 51°16.848 2°52.922 1.8 303 14.6 101590 62
2005-06-15 06:42:22 51°16.866 2°52.906 1.5 291 14.6 101590 62
2005-06-15 06:42:26 51°16.878 2°52.896 1.8 290 14.6 101590 62
2005-06-15 06:42:32 51°16.899 2°52.877 2 302 14.6 101590 62
2005-06-15 06:42:37 51°16.914 2°52.865 1.6 299 14.6 101590 62
2005-06-15 06:42:42 51°16.933 2°52.849 1.5 309 14.6 101590 62
2005-06-15 06:42:46 51°16.946 2°52.837 1.7 321 14.6 101590 62
2005-06-15 06:42:52 51°16.967 2°52.82 1.7 227 14.6 101590 62
2005-06-15 06:42:57 51°16.982 2°52.807 1.8 319 14.6 101590 62
2005-06-15 06:43:02 51°17 2°52.791 1.9 306 14.6 101590 62
2005-06-15 06:43:07 51°17.015 2°52.778 2.2 298 14.6 101590 62
2005-06-15 06:43:12 51°17.034 2°52.762 2 286 14.6 101590 62
2005-06-15 06:43:17 51°17.049 2°52.749 1.7 278 14.6 101590 63
2005-06-15 06:43:22 51°17.068 2°52.733 1.6 284 14.6 101590 63
2005-06-15 06:43:26 51°17.082 2°52.722 1.9 277 14.6 101590 63
2005-06-15 06:43:32 51°17.1 2°52.706 1.6 283 14.6 101590 63
2005-06-15 06:43:37 51°17.118 2°52.692 1.7 291 14.6 101590 63
2005-06-15 06:43:41 51°17.132 2°52.682 1.1 287 14.6 101590 63
2005-06-15 06:43:47 51°17.154 2°52.665 0.7 278 14.6 101590 63
2005-06-15 06:43:52 51°17.171 2°52.652 0.2 263 14.6 101590 63
2005-06-15 06:43:57 51°17.187 2°52.64 0.1 279 14.6 101590 63
2005-06-15 06:44:02 51°17.205 2°52.626 0.8 333 14.6 101590 63
2005-06-15 06:44:07 51°17.221 2°52.614 0.9 332 14.6 101590 63
2005-06-15 06:44:12 51°17.241 2°52.601 0.6 316 14.6 101590 63
2005-06-15 06:44:17 51°17.257 2°52.591 0.8 311 14.6 101590 63
2005-06-15 06:44:22 51°17.277 2°52.578 0.5 227 14.6 101590 63
2005-06-15 06:44:26 51°17.292 2°52.571 0.5 16 14.6 101590 63
2005-06-15 06:44:32 51°17.315 2°52.561 1 56 14.6 101590 63
2005-06-15 06:44:37 51°17.331 2°52.555 1.6 60 14.6 101590 62
2005-06-15 06:44:42 51°17.352 2°52.549 1.5 81 14.6 101590 62
2005-06-15 06:44:47 51°17.37 2°52.545 1.4 78 14.6 101590 62
2005-06-15 06:44:52 51°17.391 2°52.541 1.9 67 14.6 101590 62
2005-06-15 06:44:57 51°17.409 2°52.538 2.4 85 14.6 101590 62
2005-06-15 06:45:02 51°17.431 2°52.535 1.6 64 14.6 101590 62
2005-06-15 06:45:07 51°17.448 2°52.533 1.9 58 14.6 101590 62
2005-06-15 06:45:13 51°17.472 2°52.529 1.6 71 14.6 101590 62
2005-06-15 06:45:18 51°17.491 2°52.527 1.9 75 14.6 101580 62
2005-06-15 06:45:22 51°17.509 2°52.525 1.9 68 14.6 101580 62
2005-06-15 06:45:27 51°17.529 2°52.524 2.3 60 14.6 101590 63
2005-06-15 06:45:33 51°17.551 2°52.524 2.8 63 14.6 101590 63
2005-06-15 06:45:37 51°17.567 2°52.523 2.4 75 14.6 101590 62
2005-06-15 06:45:42 51°17.586 2°52.522 2.6 78 14.6 101590 62
2005-06-15 06:45:46 51°17.604 2°52.522 2.2 69 14.6 101590 62
2005-06-15 06:45:50 51°17.62 2°52.521 2.2 -999 14.6 101590 62
2005-06-15 06:45:57 51°17.648 2°52.521 2.1 72 14.6 101590 62
2005-06-15 06:46:02 51°17.665 2°52.52 2.4 77 14.6 101590 62
2005-06-15 06:46:06 51°17.683 2°52.519 1.9 78 14.5 101590 63
2005-06-15 06:46:12 51°17.704 2°52.517 2.5 57 14.5 101590 63
2005-06-15 06:46:17 51°17.724 2°52.516 2.1 69 14.5 101590 63
2005-06-15 06:46:22 51°17.746 2°52.515 2.3 75 14.5 101590 63
2005-06-15 06:46:28 51°17.767 2°52.514 2.4 67 14.5 101590 63
2005-06-15 06:46:32 51°17.785 2°52.514 2.5 74 14.5 101590 63
2005-06-15 06:46:37 51°17.803 2°52.512 2.3 70 14.5 101590 63
2005-06-15 06:46:42 51°17.825 2°52.512 3 43 14.5 101590 63
2005-06-15 06:46:46 51°17.84 2°52.511 3.3 50 14.5 101590 63
2005-06-15 06:46:52 51°17.864 2°52.514 3.9 64 14.5 101590 63
2005-06-15 06:46:57 51°17.883 2°52.517 3.3 70 14.5 101590 63
2005-06-15 06:47:02 51°17.902 2°52.522 3.5 63 14.5 101590 63
2005-06-15 06:47:08 51°17.924 2°52.528 3.4 64 14.5 101590 64
2005-06-15 06:47:12 51°17.941 2°52.533 3.9 64 14.5 101590 64
2005-06-15 06:47:17 51°17.958 2°52.539 3.9 65 14.5 101590 63
2005-06-15 06:47:22 51°17.978 2°52.545 4 67 14.5 101590 63
2005-06-15 06:47:27 51°17.997 2°52.555 4.3 66 14.4 101590 63
2005-06-15 06:47:32 51°18.018 2°52.566 3.9 60 14.4 101590 63
2005-06-15 06:47:37 51°18.034 2°52.575 4.6 64 14.4 101580 63
2005-06-15 06:47:42 51°18.054 2°52.586 5.3 63 14.4 101580 63
2005-06-15 06:47:46 51°18.069 2°52.596 5.3 64 14.4 101590 64
2005-06-15 06:47:52 51°18.091 2°52.609 5.1 55 14.4 101590 64
2005-06-15 06:47:57 51°18.108 2°52.62 5.1 53 14.4 101580 65
2005-06-15 06:48:02 51°18.128 2°52.634 5.3 54 14.4 101580 65
2005-06-15 06:48:06 51°18.142 2°52.644 5.5 68 14.4 101580 65
2005-06-15 06:48:12 51°18.163 2°52.662 6.1 56 14.4 101580 65
2005-06-15 06:48:17 51°18.179 2°52.676 6.7 65 14.4 101580 65
2005-06-15 06:48:22 51°18.197 2°52.695 6.4 64 14.4 101580 65
2005-06-15 06:48:27 51°18.212 2°52.712 6.8 64 14.4 101580 65
2005-06-15 06:48:32 51°18.229 2°52.734 6.9 67 14.4 101580 65
2005-06-15 06:48:37 51°18.242 2°52.751 6.6 55 14.4 101590 64
2005-06-15 06:48:42 51°18.259 2°52.773 7.2 54 14.4 101590 64
2005-06-15 06:48:47 51°18.275 2°52.793 7 57 14.4 101580 63
2005-06-15 06:48:52 51°18.29 2°52.812 6.7 56 14.4 101580 63
2005-06-15 06:48:57 51°18.303 2°52.831 6.7 58 14.4 101580 64
2005-06-15 06:49:02 51°18.32 2°52.854 6.7 57 14.4 101580 64
2005-06-15 06:49:06 51°18.332 2°52.87 7.1 58 14.4 101580 64
2005-06-15 06:49:13 51°18.351 2°52.899 7 56 14.4 101580 64
2005-06-15 06:49:17 51°18.362 2°52.916 6.9 54 14.3 101570 64
2005-06-15 06:49:21 51°18.373 2°52.935 7.1 53 14.3 101570 64
2005-06-15 06:49:26 51°18.388 2°52.96 7.2 46 14.3 101570 64
2005-06-15 06:49:32 51°18.405 2°52.988 7.2 49 14.3 101570 64
2005-06-15 06:49:37 51°18.417 2°53.008 6.7 49 14.3 101580 64
2005-06-15 06:49:42 51°18.432 2°53.034 6.9 50 14.3 101580 64
2005-06-15 06:49:47 51°18.446 2°53.057 6.6 48 14.3 101580 64
2005-06-15 06:49:52 51°18.459 2°53.08 7 45 14.3 101580 65
2005-06-15 06:49:57 51°18.472 2°53.1 7 40 14.3 101570 65
2005-06-15 06:50:02 51°18.487 2°53.126 6.7 44 14.3 101570 65
2005-06-15 06:50:06 51°18.498 2°53.144 7.6 44 14.3 101580 64
2005-06-15 06:50:12 51°18.515 2°53.172 8.3 51 14.3 101580 64
2005-06-15 06:50:17 51°18.527 2°53.194 8.2 54 14.3 101580 67
2005-06-15 06:50:22 51°18.541 2°53.22 7.6 54 14.3 101580 67
2005-06-15 06:50:26 51°18.55 2°53.24 8.2 56 14.3 101580 67
2005-06-15 06:50:32 51°18.565 2°53.271 9.1 49 14.3 101580 67
2005-06-15 06:50:37 51°18.575 2°53.294 9.2 52 14.3 101580 66
2005-06-15 06:50:42 51°18.588 2°53.322 8.6 48 14.3 101580 66
2005-06-15 06:50:47 51°18.599 2°53.346 9.6 48 14.3 101570 65
2005-06-15 06:50:52 51°18.611 2°53.374 9.2 50 14.3 101570 65
2005-06-15 06:50:57 51°18.62 2°53.398 9 37 14.3 101570 66
2005-06-15 06:51:02 51°18.631 2°53.428 9.2 41 14.3 101570 66
2005-06-15 06:51:07 51°18.64 2°53.456 9.4 40 14.4 101580 66
2005-06-15 06:51:13 51°18.65 2°53.487 9.5 40 14.4 101580 66
2005-06-15 06:51:17 51°18.657 2°53.51 9.3 37 14.4 101570 65
2005-06-15 06:51:22 51°18.666 2°53.541 9.2 40 14.4 101570 65
2005-06-15 06:51:27 51°18.673 2°53.567 8.9 38 14.3 101570 64
2005-06-15 06:51:33 51°18.682 2°53.602 9 39 14.3 101570 64
2005-06-15 06:51:37 51°18.69 2°53.624 8.8 40 14.4 101570 64
2005-06-15 06:51:42 51°18.698 2°53.656 8.6 35 14.4 101570 64
2005-06-15 06:51:46 51°18.705 2°53.68 9 42 14.4 101570 65
2005-06-15 06:51:53 51°18.714 2°53.718 9.5 39 14.4 101570 65
2005-06-15 06:51:57 51°18.72 2°53.741 10.2 43 14.4 101570 65
2005-06-15 06:52:02 51°18.728 2°53.773 9.9 46 14.4 101570 65
2005-06-15 06:52:07 51°18.734 2°53.8 9.6 42 14.4 101570 65
2005-06-15 06:52:12 51°18.742 2°53.832 10 47 14.4 101570 65
2005-06-15 06:52:17 51°18.748 2°53.859 10.5 47 14.4 101570 64
2005-06-15 06:52:22 51°18.756 2°53.891 9.9 48 14.4 101570 64
2005-06-15 06:52:26 51°18.762 2°53.915 9.4 44 14.4 101570 64
2005-06-15 06:52:32 51°18.769 2°53.947 9.3 45 14.4 101570 64
2005-06-15 06:52:37 51°18.777 2°53.976 9.6 46 14.4 101560 63
2005-06-15 06:52:42 51°18.785 2°54.009 8.6 41 14.4 101560 63
2005-06-15 06:52:46 51°18.791 2°54.032 9 45 14.4 101570 63
2005-06-15 06:52:52 51°18.8 2°54.067 9.4 42 14.4 101570 63
2005-06-15 06:52:57 51°18.806 2°54.094 9.9 41 14.4 101560 62
2005-06-15 06:53:03 51°18.815 2°54.128 10.3 41 14.4 101560 62
2005-06-15 06:53:07 51°18.82 2°54.152 9.7 43 14.4 101570 64
2005-06-15 06:53:12 51°18.828 2°54.184 9.6 43 14.4 101570 64
2005-06-15 06:53:17 51°18.834 2°54.21 9.7 38 14.4 101570 64
2005-06-15 06:53:22 51°18.841 2°54.243 10.6 40 14.4 101570 64
2005-06-15 06:53:27 51°18.847 2°54.27 11.1 42 14.4 101570 64
2005-06-15 06:53:33 51°18.855 2°54.305 10.2 44 14.4 101570 64
2005-06-15 06:53:37 51°18.861 2°54.329 9.7 44 14.4 101570 65
2005-06-15 06:53:42 51°18.868 2°54.361 10.7 39 14.4 101570 65
2005-06-15 06:53:47 51°18.874 2°54.387 10.4 43 14.4 101570 64
2005-06-15 06:53:53 51°18.883 2°54.422 10.2 41 14.4 101570 64
2005-06-15 06:53:57 51°18.888 2°54.446 10.5 42 14.4 101560 64
2005-06-15 06:54:02 51°18.896 2°54.479 10.4 46 14.4 101560 64
2005-06-15 06:54:07 51°18.902 2°54.508 10.4 41 14.4 101570 63
2005-06-15 06:54:12 51°18.909 2°54.537 9.4 40 14.4 101570 63
2005-06-15 06:54:17 51°18.915 2°54.564 9.8 38 14.4 101570 61
2005-06-15 06:54:22 51°18.923 2°54.593 9.6 35 14.4 101570 61
2005-06-15 06:54:26 51°18.929 2°54.62 9.6 37 14.5 101570 62
2005-06-15 06:54:32 51°18.937 2°54.655 9.8 38 14.5 101570 62
2005-06-15 06:54:37 51°18.944 2°54.682 9.4 39 14.5 101560 63
2005-06-15 06:54:41 51°18.949 2°54.706 9.5 40 14.5 101560 63
2005-06-15 06:54:46 51°18.957 2°54.738 9.8 41 14.5 101560 64
2005-06-15 06:54:52 51°18.965 2°54.771 9.2 41 14.5 101560 64
2005-06-15 06:54:57 51°18.972 2°54.801 9.3 40 14.4 101570 63
2005-06-15 06:55:02 51°18.979 2°54.833 9.2 42 14.4 101570 63
2005-06-15 06:55:06 51°18.985 2°54.857 9 42 14.4 101570 62
2005-06-15 06:55:12 51°18.994 2°54.893 9.1 35 14.4 101570 62
2005-06-15 06:55:17 51°19.001 2°54.923 9 37 14.4 101570 63
2005-06-15 06:55:22 51°19.008 2°54.952 9 37 14.4 101570 63
2005-06-15 06:55:27 51°19.014 2°54.978 9.4 37 14.4 101570 63
2005-06-15 06:55:33 51°19.023 2°55.014 9 38 14.4 101570 63
2005-06-15 06:55:37 51°19.029 2°55.038 8.5 37 14.4 101570 65
2005-06-15 06:55:42 51°19.037 2°55.07 8.5 36 14.4 101570 65
2005-06-15 06:55:46 51°19.043 2°55.094 8.7 33 14.5 101570 63
2005-06-15 06:55:53 51°19.053 2°55.132 8.5 35 14.5 101570 63
2005-06-15 06:55:56 51°19.058 2°55.153 8.8 37 14.5 101570 63
2005-06-15 06:56:01 51°19.064 2°55.18 8.3 41 14.5 101570 63
2005-06-15 06:56:06 51°19.071 2°55.209 9.1 38 14.5 101580 65
2005-06-15 06:56:12 51°19.08 2°55.248 8.7 33 14.5 101580 65
2005-06-15 06:56:17 51°19.087 2°55.278 9.5 36 14.5 101570 65
2005-06-15 06:56:22 51°19.095 2°55.307 8.9 34 14.5 101570 65
2005-06-15 06:56:26 51°19.101 2°55.331 9.1 40 14.5 101570 64
2005-06-15 06:56:32 51°19.11 2°55.366 8.7 43 14.5 101570 64
2005-06-15 06:56:37 51°19.116 2°55.392 8.2 39 14.5 101570 65
2005-06-15 06:56:41 51°19.122 2°55.416 9.1 36 14.5 101570 65
2005-06-15 06:56:47 51°19.131 2°55.451 9.2 39 14.5 101570 64
2005-06-15 06:56:52 51°19.139 2°55.483 9.7 43 14.5 101570 64
2005-06-15 06:56:57 51°19.146 2°55.513 9.2 40 14.5 101570 64
2005-06-15 06:57:02 51°19.153 2°55.54 9.5 38 14.5 101570 64
2005-06-15 06:57:07 51°19.16 2°55.569 10.2 38 14.5 101570 65
2005-06-15 06:57:12 51°19.168 2°55.602 9.7 38 14.5 101570 65
2005-06-15 06:57:17 51°19.175 2°55.629 9.8 39 14.5 101570 64
2005-06-15 06:57:21 51°19.181 2°55.652 9.6 40 14.5 101570 64
2005-06-15 06:57:27 51°19.19 2°55.691 9.3 40 14.5 101570 64
2005-06-15 06:57:32 51°19.197 2°55.717 9.5 40 14.5 101570 64
2005-06-15 06:57:37 51°19.205 2°55.747 9.9 42 14.5 101560 62
2005-06-15 06:57:42 51°19.212 2°55.777 8.9 39 14.5 101560 62
2005-06-15 06:57:47 51°19.22 2°55.806 9.4 44 14.5 101560 62
2005-06-15 06:57:52 51°19.228 2°55.839 10 43 14.5 101560 62
2005-06-15 06:57:57 51°19.235 2°55.866 9.3 42 14.5 101560 62
2005-06-15 06:58:02 51°19.243 2°55.899 10.1 36 14.5 101570 63
2005-06-15 06:58:08 51°19.251 2°55.931 9.8 38 14.5 101570 63
2005-06-15 06:58:12 51°19.257 2°55.955 10.8 39 14.6 101570 63
2005-06-15 06:58:17 51°19.264 2°55.985 10.8 40 14.6 101570 63
2005-06-15 06:58:22 51°19.272 2°56.018 10.7 41 14.6 101570 64
2005-06-15 06:58:27 51°19.28 2°56.047 10.5 39 14.6 101560 65
2005-06-15 06:58:32 51°19.287 2°56.074 10.3 36 14.6 101560 65
2005-06-15 06:58:37 51°19.295 2°56.103 10.5 36 14.6 101560 65
2005-06-15 06:58:41 51°19.302 2°56.13 9.9 39 14.6 101570 63
2005-06-15 06:58:46 51°19.31 2°56.159 10.2 37 14.6 101570 63
2005-06-15 06:58:52 51°19.319 2°56.194 10.4 38 14.6 101560 64
2005-06-15 06:58:57 51°19.326 2°56.221 9.8 38 14.6 101560 64
2005-06-15 06:59:02 51°19.334 2°56.253 9.9 39 14.6 101560 64
2005-06-15 06:59:07 51°19.341 2°56.279 9.7 39 14.6 101560 64
2005-06-15 06:59:13 51°19.351 2°56.315 9.3 40 14.6 101570 64
2005-06-15 06:59:17 51°19.358 2°56.342 9.7 41 14.6 101560 64
2005-06-15 06:59:22 51°19.365 2°56.371 9.6 42 14.6 101560 64
2005-06-15 06:59:26 51°19.371 2°56.394 9.9 38 14.6 101560 64
2005-06-15 06:59:32 51°19.38 2°56.43 9.6 41 14.6 101560 65
2005-06-15 06:59:37 51°19.386 2°56.457 9.7 42 14.6 101570 64
2005-06-15 06:59:42 51°19.394 2°56.489 9 40 14.6 101570 64
2005-06-15 06:59:47 51°19.401 2°56.516 9.2 41 14.6 101560 64
2005-06-15 06:59:52 51°19.409 2°56.549 9.2 42 14.6 101560 64
2005-06-15 06:59:57 51°19.416 2°56.579 10 43 14.6 101560 64
2005-06-15 07:00:02 51°19.423 2°56.605 9.3 40 14.6 101560 65
2005-06-15 07:00:06 51°19.429 2°56.631 9 44 14.6 101570 64
2005-06-15 07:00:12 51°19.438 2°56.667 10.1 47 14.6 101570 64
2005-06-15 07:00:17 51°19.444 2°56.693 9.3 43 14.6 101570 64
2005-06-15 07:00:22 51°19.452 2°56.726 10.3 42 14.6 101570 64
2005-06-15 07:00:27 51°19.459 2°56.753 10.2 41 14.6 101570 65
2005-06-15 07:00:32 51°19.467 2°56.785 9.9 41 14.6 101570 65
2005-06-15 07:00:37 51°19.475 2°56.815 9.6 38 14.6 101570 65
2005-06-15 07:00:42 51°19.482 2°56.844 9.6 38 14.6 101570 65
2005-06-15 07:00:46 51°19.488 2°56.868 9.7 38 14.6 101560 66
2005-06-15 07:00:52 51°19.497 2°56.903 10.3 40 14.6 101560 66
2005-06-15 07:00:57 51°19.504 2°56.929 10.2 40 14.6 101560 66
2005-06-15 07:01:02 51°19.512 2°56.961 10 37 14.6 101570 66
2005-06-15 07:01:06 51°19.519 2°56.985 10 40 14.6 101570 65
2005-06-15 07:01:12 51°19.528 2°57.02 10.4 42 14.6 101570 65
2005-06-15 07:01:17 51°19.534 2°57.046 9.9 40 14.6 101570 65
2005-06-15 07:01:22 51°19.543 2°57.079 10 40 14.6 101570 65
2005-06-15 07:01:27 51°19.55 2°57.108 10.3 38 14.6 101570 65
2005-06-15 07:01:32 51°19.558 2°57.137 10.3 41 14.6 101560 64
2005-06-15 07:01:37 51°19.564 2°57.164 9.9 41 14.6 101560 63
2005-06-15 07:01:42 51°19.572 2°57.196 9.9 45 14.6 101560 63
2005-06-15 07:01:47 51°19.58 2°57.226 10.5 38 14.6 101560 65
2005-06-15 07:01:52 51°19.587 2°57.255 10.4 43 14.6 101560 65
2005-06-15 07:01:57 51°19.594 2°57.285 10.5 45 14.6 101560 65
2005-06-15 07:02:02 51°19.601 2°57.314 10.1 45 14.6 101560 65
2005-06-15 07:02:07 51°19.608 2°57.34 10.8 44 14.6 101560 65
2005-06-15 07:02:12 51°19.616 2°57.37 10.5 44 14.6 101570 64
2005-06-15 07:02:17 51°19.623 2°57.399 10.2 48 14.6 101570 64
2005-06-15 07:02:22 51°19.632 2°57.431 10.5 42 14.6 101560 64
2005-06-15 07:02:26 51°19.638 2°57.454 10.4 48 14.6 101560 64
2005-06-15 07:02:32 51°19.646 2°57.49 10.8 44 14.6 101560 64
2005-06-15 07:02:37 51°19.653 2°57.516 10.8 41 14.6 101560 64
2005-06-15 07:02:42 51°19.66 2°57.545 10.9 49 14.6 101560 64
2005-06-15 07:02:47 51°19.668 2°57.577 10.6 41 14.6 101560 65
2005-06-15 07:02:52 51°19.676 2°57.606 10.2 48 14.6 101560 65
2005-06-15 07:02:57 51°19.683 2°57.633 10.2 47 14.6 101570 63
2005-06-15 07:03:02 51°19.691 2°57.665 10.3 46 14.6 101570 63
2005-06-15 07:03:06 51°19.697 2°57.688 10.3 45 14.6 101570 63
2005-06-15 07:03:12 51°19.706 2°57.723 10.1 44 14.6 101560 63
2005-06-15 07:03:17 51°19.713 2°57.753 10.4 43 14.6 101560 63
2005-06-15 07:03:21 51°19.719 2°57.773 10.1 43 14.7 101560 64
2005-06-15 07:03:27 51°19.727 2°57.808 10.2 43 14.7 101560 63
2005-06-15 07:03:33 51°19.736 2°57.843 9.6 42 14.7 101560 63
2005-06-15 07:03:37 51°19.742 2°57.867 9.6 38 14.6 101560 63
2005-06-15 07:03:41 51°19.748 2°57.89 10.2 44 14.6 101560 63
2005-06-15 07:03:47 51°19.757 2°57.925 9.5 43 14.6 101560 63
2005-06-15 07:03:52 51°19.765 2°57.957 10.1 47 14.7 101560 63
2005-06-15 07:03:57 51°19.773 2°57.987 10.3 39 14.7 101560 65
2005-06-15 07:04:02 51°19.781 2°58.016 10 38 14.7 101560 65
2005-06-15 07:04:06 51°19.787 2°58.04 10.1 39 14.7 101560 64
2005-06-15 07:04:12 51°19.796 2°58.071 10.6 41 14.7 101560 64
2005-06-15 07:04:17 51°19.803 2°58.101 9.9 40 14.7 101570 65
2005-06-15 07:04:21 51°19.811 2°58.127 10.2 39 14.7 101570 65
2005-06-15 07:04:27 51°19.819 2°58.159 10.4 38 14.7 101570 65
2005-06-15 07:04:32 51°19.828 2°58.191 10.3 38 14.7 101570 66
2005-06-15 07:04:37 51°19.834 2°58.217 10.1 37 14.7 101570 66
2005-06-15 07:04:42 51°19.842 2°58.249 10.6 37 14.7 101570 66
2005-06-15 07:04:46 51°19.848 2°58.273 11 39 14.7 101570 66
2005-06-15 07:04:52 51°19.856 2°58.309 10.7 37 14.6 101570 65
2005-06-15 07:04:57 51°19.862 2°58.335 10.7 35 14.6 101570 65
2005-06-15 07:05:02 51°19.868 2°58.369 11 37 14.6 101570 66
2005-06-15 07:05:07 51°19.875 2°58.399 10.8 35 14.6 101570 66
2005-06-15 07:05:12 51°19.879 2°58.426 10.4 39 14.6 101570 65
2005-06-15 07:05:17 51°19.886 2°58.459 10.7 36 14.6 101570 65
2005-06-15 07:05:21 51°19.89 2°58.48 10.3 39 14.6 101560 66
2005-06-15 07:05:27 51°19.898 2°58.516 10.4 40 14.6 101570 65
2005-06-15 07:05:31 51°19.903 2°58.544 10.3 42 14.6 101570 65
2005-06-15 07:05:37 51°19.91 2°58.577 10.5 37 14.6 101570 65
2005-06-15 07:05:42 51°19.916 2°58.61 10.8 41 14.5 101560 66
2005-06-15 07:05:48 51°19.923 2°58.643 10.4 41 14.5 101560 65
2005-06-15 07:05:53 51°19.929 2°58.673 10.4 39 14.5 101560 65
2005-06-15 07:05:57 51°19.934 2°58.697 10.3 40 14.5 101570 65
2005-06-15 07:06:02 51°19.94 2°58.731 10.7 38 14.5 101570 65
2005-06-15 07:06:07 51°19.947 2°58.761 10.2 40 14.5 101570 65
2005-06-15 07:06:11 51°19.952 2°58.785 10.8 42 14.5 101570 64
2005-06-15 07:06:17 51°19.959 2°58.821 10.6 42 14.5 101570 64
2005-06-15 07:06:22 51°19.965 2°58.851 10.3 44 14.5 101560 65
2005-06-15 07:06:26 51°19.969 2°58.872 10.6 47 14.5 101560 65
2005-06-15 07:06:31 51°19.975 2°58.902 11.2 43 14.5 101560 65
2005-06-15 07:06:37 51°19.983 2°58.941 11.2 47 14.5 101570 64
2005-06-15 07:06:42 51°19.989 2°58.971 10.9 47 14.5 101570 64
2005-06-15 07:06:46 51°19.993 2°58.995 11.2 44 14.5 101560 63
2005-06-15 07:06:53 51°20.001 2°59.035 11 44 14.5 101560 63
2005-06-15 07:06:57 51°20.007 2°59.062 10 44 14.6 101560 63
2005-06-15 07:07:02 51°20.013 2°59.092 10.9 46 14.6 101560 63
2005-06-15 07:07:07 51°20.018 2°59.122 11.3 48 14.6 101560 63
2005-06-15 07:07:12 51°20.024 2°59.15 10.5 48 14.6 101570 63
2005-06-15 07:07:17 51°20.03 2°59.18 11.3 46 14.6 101570 63
2005-06-15 07:07:22 51°20.037 2°59.213 10.7 46 14.6 101550 63
2005-06-15 07:07:27 51°20.043 2°59.243 11 44 14.6 101550 63
2005-06-15 07:07:32 51°20.049 2°59.27 10.7 48 14.6 101560 62
2005-06-15 07:07:37 51°20.055 2°59.301 10.9 46 14.6 101560 62
2005-06-15 07:07:42 51°20.062 2°59.334 10.7 47 14.6 101560 63
2005-06-15 07:07:47 51°20.069 2°59.361 11 45 14.6 101560 63
2005-06-15 07:07:52 51°20.076 2°59.394 10.6 38 14.6 101560 63
2005-06-15 07:07:57 51°20.082 2°59.421 10.7 39 14.7 101560 62
2005-06-15 07:08:02 51°20.09 2°59.454 11.2 37 14.7 101560 62
2005-06-15 07:08:07 51°20.096 2°59.482 10.9 38 14.7 101560 62
2005-06-15 07:08:12 51°20.103 2°59.515 10.4 39 14.7 101560 64
2005-06-15 07:08:17 51°20.109 2°59.545 10.7 39 14.7 101570 64
2005-06-15 07:08:22 51°20.115 2°59.575 10.3 38 14.7 101570 64
2005-06-15 07:08:26 51°20.121 2°59.599 10.2 39 14.7 101570 64
2005-06-15 07:08:32 51°20.128 2°59.636 10.6 35 14.7 101570 64
2005-06-15 07:08:37 51°20.134 2°59.663 10.4 39 14.7 101560 64
2005-06-15 07:08:42 51°20.14 2°59.696 10.5 41 14.7 101560 64
2005-06-15 07:08:46 51°20.145 2°59.721 10.3 35 14.7 101560 65
2005-06-15 07:08:52 51°20.153 2°59.757 10.4 40 14.7 101560 65
2005-06-15 07:08:57 51°20.158 2°59.784 10.4 43 14.7 101570 65
2005-06-15 07:09:02 51°20.165 2°59.817 10.4 40 14.7 101570 65
2005-06-15 07:09:07 51°20.172 2°59.847 10.9 44 14.7 101570 65
2005-06-15 07:09:12 51°20.179 2°59.877 10.7 42 14.7 101560 65
2005-06-15 07:09:17 51°20.185 2°59.907 10.6 44 14.7 101560 65
2005-06-15 07:09:22 51°20.192 2°59.937 10.9 48 14.7 101560 65
2005-06-15 07:09:27 51°20.198 2°59.967 10.2 44 14.7 101560 64
2005-06-15 07:09:32 51°20.204 2°59.997 11.1 47 14.7 101560 64
2005-06-15 07:09:37 51°20.21 3°0.024 10.1 42 14.7 101560 64
2005-06-15 07:09:42 51°20.217 3°0.057 10.6 42 14.7 101570 64
2005-06-15 07:09:47 51°20.223 3°0.087 9.9 40 14.7 101570 63
2005-06-15 07:09:52 51°20.228 3°0.117 10.1 42 14.7 101570 63
2005-06-15 07:09:57 51°20.234 3°0.144 10.6 42 14.7 101570 63
2005-06-15 07:10:01 51°20.239 3°0.168 10.3 41 14.7 101570 63
2005-06-15 07:10:07 51°20.246 3°0.204 10.5 41 14.7 101570 63
2005-06-15 07:10:12 51°20.253 3°0.237 10.7 43 14.7 101560 62
2005-06-15 07:10:17 51°20.259 3°0.264 10.3 39 14.7 101560 63
2005-06-15 07:10:22 51°20.265 3°0.297 10.3 40 14.7 101560 63
2005-06-15 07:10:27 51°20.271 3°0.327 9.9 41 14.7 101560 63
2005-06-15 07:10:32 51°20.278 3°0.356 10.2 38 14.7 101560 63
2005-06-15 07:10:37 51°20.283 3°0.383 9.8 40 14.7 101560 63
2005-06-15 07:10:42 51°20.29 3°0.416 9.9 42 14.7 101560 63
2005-06-15 07:10:46 51°20.295 3°0.44 9.6 42 14.7 101560 63
2005-06-15 07:10:52 51°20.303 3°0.476 9.5 39 14.7 101560 62
2005-06-15 07:10:57 51°20.309 3°0.503 9.5 40 14.7 101560 62
2005-06-15 07:11:02 51°20.315 3°0.535 9.7 38 14.6 101560 64
2005-06-15 07:11:06 51°20.32 3°0.559 9.5 38 14.6 101560 64
2005-06-15 07:11:12 51°20.328 3°0.595 10 41 14.7 101570 63
2005-06-15 07:11:17 51°20.333 3°0.621 9.7 36 14.7 101570 64
2005-06-15 07:11:22 51°20.34 3°0.654 9.7 38 14.7 101570 64
2005-06-15 07:11:27 51°20.346 3°0.681 9 38 14.7 101570 64
2005-06-15 07:11:32 51°20.351 3°0.711 9 38 14.7 101570 64
2005-06-15 07:11:37 51°20.358 3°0.743 9.5 36 14.7 101570 64
2005-06-15 07:11:42 51°20.363 3°0.77 10.1 37 14.7 101570 64
2005-06-15 07:11:47 51°20.369 3°0.799 9.6 39 14.7 101570 64
2005-06-15 07:11:52 51°20.376 3°0.832 9.6 42 14.7 101570 64
2005-06-15 07:11:57 51°20.382 3°0.858 9.8 39 14.7 101570 64
2005-06-15 07:12:02 51°20.388 3°0.891 9.9 41 14.7 101570 64
2005-06-15 07:12:07 51°20.394 3°0.918 10.3 41 14.7 101570 64
2005-06-15 07:12:13 51°20.4 3°0.953 9.8 39 14.7 101570 64
2005-06-15 07:12:17 51°20.405 3°0.977 10.5 38 14.7 101570 66
2005-06-15 07:12:22 51°20.411 3°1.009 10.4 37 14.7 101570 66
2005-06-15 07:12:28 51°20.417 3°1.042 10.2 36 14.7 101570 66
2005-06-15 07:12:32 51°20.422 3°1.068 10.5 42 14.7 101570 64
2005-06-15 07:12:37 51°20.428 3°1.095 10.5 38 14.7 101570 64
2005-06-15 07:12:42 51°20.434 3°1.124 10 39 14.7 101570 64
2005-06-15 07:12:46 51°20.439 3°1.15 10.3 40 14.7 101570 64
2005-06-15 07:12:52 51°20.446 3°1.183 10.5 41 14.8 101570 64
2005-06-15 07:12:57 51°20.452 3°1.212 10 39 14.8 101570 64
2005-06-15 07:13:02 51°20.459 3°1.244 11 41 14.8 101570 64
2005-06-15 07:13:07 51°20.465 3°1.27 10.2 43 14.8 101570 63
2005-06-15 07:13:12 51°20.472 3°1.302 9.7 40 14.8 101570 63
2005-06-15 07:13:17 51°20.478 3°1.328 10 43 14.8 101570 63
2005-06-15 07:13:22 51°20.484 3°1.36 10 39 14.8 101570 63
2005-06-15 07:13:27 51°20.491 3°1.39 10.7 42 14.8 101570 61
2005-06-15 07:13:32 51°20.497 3°1.419 10 42 14.8 101570 61
2005-06-15 07:13:37 51°20.503 3°1.448 10.3 42 14.8 101570 61
2005-06-15 07:13:42 51°20.509 3°1.477 10.2 37 14.8 101560 63
2005-06-15 07:13:47 51°20.515 3°1.506 10.1 34 14.8 101570 64
2005-06-15 07:13:52 51°20.521 3°1.536 10.2 39 14.8 101570 64
2005-06-15 07:13:57 51°20.526 3°1.562 10.2 37 14.9 101570 62
2005-06-15 07:14:02 51°20.532 3°1.595 10.2 37 14.9 101570 62
2005-06-15 07:14:07 51°20.537 3°1.621 10.1 39 14.9 101570 64
2005-06-15 07:14:12 51°20.543 3°1.654 10 37 14.9 101570 64
2005-06-15 07:14:17 51°20.548 3°1.68 9.9 36 14.9 101570 64
2005-06-15 07:14:21 51°20.554 3°1.707 10.1 36 14.9 101570 62
2005-06-15 07:14:26 51°20.559 3°1.737 10.1 37 14.9 101570 62
2005-06-15 07:14:32 51°20.566 3°1.772 10.3 35 14.9 101570 62
2005-06-15 07:14:37 51°20.572 3°1.802 10.1 35 14.9 101570 62
2005-06-15 07:14:42 51°20.578 3°1.831 10.2 39 14.9 101570 62
2005-06-15 07:14:47 51°20.584 3°1.858 9.6 36 14.9 101570 63
2005-06-15 07:14:52 51°20.59 3°1.89 9.9 37 14.9 101570 63
2005-06-15 07:14:57 51°20.596 3°1.917 10.1 40 14.9 101570 63
2005-06-15 07:15:02 51°20.602 3°1.946 10.3 36 14.9 101570 63
2005-06-15 07:15:07 51°20.609 3°1.979 9.9 38 14.9 101570 63
2005-06-15 07:15:12 51°20.615 3°2.008 9.9 37 14.9 101570 63
2005-06-15 07:15:17 51°20.62 3°2.034 10.4 37 14.9 101570 62
2005-06-15 07:15:21 51°20.625 3°2.061 9.8 36 14.9 101570 62
2005-06-15 07:15:26 51°20.631 3°2.091 10.4 40 14.9 101570 62
2005-06-15 07:15:32 51°20.638 3°2.127 10.2 39 14.9 101570 61
2005-06-15 07:15:37 51°20.643 3°2.157 9.4 39 14.9 101570 61
2005-06-15 07:15:42 51°20.649 3°2.186 9.3 40 14.9 101570 61
2005-06-15 07:15:47 51°20.654 3°2.213 9.3 40 14.9 101570 62
2005-06-15 07:15:52 51°20.662 3°2.245 8.8 37 14.9 101570 62
2005-06-15 07:15:57 51°20.668 3°2.271 8.8 38 14.9 101570 61
2005-06-15 07:16:02 51°20.674 3°2.3 9 39 14.9 101570 61
2005-06-15 07:16:08 51°20.683 3°2.335 8.7 38 14.9 101570 61
2005-06-15 07:16:12 51°20.688 3°2.358 8.9 38 14.9 101580 62
2005-06-15 07:16:17 51°20.695 3°2.388 9.9 39 14.9 101570 61
2005-06-15 07:16:22 51°20.702 3°2.417 9.5 43 14.9 101570 61
2005-06-15 07:16:28 51°20.71 3°2.452 9.4 40 14.9 101570 61
2005-06-15 07:16:32 51°20.716 3°2.476 9.5 38 14.9 101580 63
2005-06-15 07:16:37 51°20.722 3°2.505 10.2 43 14.9 101580 64
2005-06-15 07:16:42 51°20.73 3°2.534 9.2 41 14.9 101580 64
2005-06-15 07:16:47 51°20.737 3°2.563 9.6 40 14.9 101570 64
2005-06-15 07:16:52 51°20.745 3°2.595 9.8 -999 14.9 101570 64
2005-06-15 07:16:57 51°20.751 3°2.622 9.2 40 14.9 101570 63
2005-06-15 07:17:02 51°20.758 3°2.654 9.7 37 14.9 101570 63
2005-06-15 07:17:06 51°20.764 3°2.678 9.3 36 14.9 101570 63
2005-06-15 07:17:13 51°20.773 3°2.715 9.4 39 14.9 101580 62
2005-06-15 07:17:17 51°20.779 3°2.739 9.4 39 14.9 101570 63
2005-06-15 07:17:22 51°20.787 3°2.771 9.1 34 14.9 101570 63
2005-06-15 07:17:27 51°20.794 3°2.797 9 33 14.9 101570 63
2005-06-15 07:17:33 51°20.801 3°2.833 9.3 34 14.9 101570 62
2005-06-15 07:17:37 51°20.807 3°2.856 8.7 34 14.9 101570 62
2005-06-15 07:17:41 51°20.812 3°2.88 8.9 31 14.9 101570 62
2005-06-15 07:17:47 51°20.821 3°2.918 8.9 31 14.9 101570 62
2005-06-15 07:17:52 51°20.828 3°2.948 8.7 30 14.9 101570 63
2005-06-15 07:17:57 51°20.835 3°2.977 9.1 35 14.9 101570 63
2005-06-15 07:18:03 51°20.842 3°3.01 8.7 31 14.9 101570 63
2005-06-15 07:18:07 51°20.848 3°3.033 8.6 31 15 101580 63
2005-06-15 07:18:12 51°20.855 3°3.065 9.7 31 15 101580 63
2005-06-15 07:18:17 51°20.862 3°3.092 9.2 36 15 101580 63
2005-06-15 07:18:22 51°20.87 3°3.124 9.6 33 15 101580 64
2005-06-15 07:18:26 51°20.875 3°3.147 9.2 35 15 101580 64
2005-06-15 07:18:32 51°20.884 3°3.183 9.6 36 15 101580 64
2005-06-15 07:18:37 51°20.89 3°3.209 10 33 15 101580 64
2005-06-15 07:18:42 51°20.897 3°3.239 9.6 37 15 101580 64
2005-06-15 07:18:46 51°20.904 3°3.265 9.8 38 15 101570 64
2005-06-15 07:18:52 51°20.913 3°3.3 9.3 38 15 101570 64
2005-06-15 07:18:57 51°20.919 3°3.327 9.5 37 15 101580 64
2005-06-15 07:19:02 51°20.927 3°3.356 9 37 15 101580 64
2005-06-15 07:19:06 51°20.933 3°3.383 9.1 38 15 101580 62
2005-06-15 07:19:12 51°20.942 3°3.418 9.2 35 15 101580 62
2005-06-15 07:19:17 51°20.948 3°3.444 9 35 15 101570 62
2005-06-15 07:19:22 51°20.956 3°3.474 9.4 38 15 101570 62
2005-06-15 07:19:26 51°20.962 3°3.5 8.8 35 15 101580 62
2005-06-15 07:19:33 51°20.971 3°3.539 8.8 36 15 101580 62
2005-06-15 07:19:37 51°20.977 3°3.562 8.9 36 15 101580 63
2005-06-15 07:19:42 51°20.984 3°3.594 9.3 36 15 101580 63
2005-06-15 07:19:47 51°20.991 3°3.624 9.5 40 15 101580 63
2005-06-15 07:19:52 51°20.998 3°3.653 8.7 30 15 101580 63
2005-06-15 07:19:57 51°21.005 3°3.683 9.6 35 15 101580 63
2005-06-15 07:20:02 51°21.012 3°3.711 8.3 38 15 101580 62
2005-06-15 07:20:07 51°21.018 3°3.737 8.4 40 15 101580 62
2005-06-15 07:20:12 51°21.025 3°3.761 8.2 48 15 101580 62
2005-06-15 07:20:17 51°21.031 3°3.784 7.5 44 15 101580 63
2005-06-15 07:20:22 51°21.036 3°3.806 7.9 49 15 101580 63
2005-06-15 07:20:28 51°21.043 3°3.827 7.4 49 15 101580 63
2005-06-15 07:20:32 51°21.047 3°3.842 6.4 50 15 101580 64
2005-06-15 07:20:37 51°21.052 3°3.859 6.5 55 15 101580 63
2005-06-15 07:20:42 51°21.058 3°3.874 5.9 67 15 101580 63
2005-06-15 07:20:48 51°21.065 3°3.889 5.1 68 15 101580 63
2005-06-15 07:20:52 51°21.069 3°3.899 4 75 15 101580 62
2005-06-15 07:20:57 51°21.074 3°3.908 5.1 82 15 101580 62
2005-06-15 07:21:02 51°21.08 3°3.918 4.7 90 15 101580 63
2005-06-15 07:21:07 51°21.085 3°3.924 4.6 99 15.1 101590 62
2005-06-15 07:21:12 51°21.09 3°3.931 4.6 104 15.1 101590 62
2005-06-15 07:21:17 51°21.093 3°3.936 4.2 106 15.1 101590 63
2005-06-15 07:21:22 51°21.098 3°3.942 4.1 111 15.1 101590 63
2005-06-15 07:21:27 51°21.102 3°3.947 4.1 105 15.1 101590 62
2005-06-15 07:21:32 51°21.106 3°3.952 3.8 110 15.1 101590 62
2005-06-15 07:21:37 51°21.11 3°3.956 3.8 111 15.1 101590 61
2005-06-15 07:21:42 51°21.114 3°3.961 3.4 114 15.1 101590 61
2005-06-15 07:21:46 51°21.117 3°3.965 3.6 119 15.1 101590 61
2005-06-15 07:21:52 51°21.122 3°3.97 3.5 124 15.1 101590 61
2005-06-15 07:21:57 51°21.125 3°3.973 3.5 124 15.1 101590 62
2005-06-15 07:22:01 51°21.129 3°3.977 3.7 118 15.1 101590 62
2005-06-15 07:22:07 51°21.134 3°3.981 3.6 116 15.1 101590 63
2005-06-15 07:22:12 51°21.138 3°3.986 3.8 120 15.1 101590 63
2005-06-15 07:22:17 51°21.143 3°3.99 3.8 118 15.2 101590 63
2005-06-15 07:22:22 51°21.148 3°3.995 4 119 15.2 101590 63
2005-06-15 07:22:27 51°21.153 3°4 3.8 117 15.2 101590 63
2005-06-15 07:22:32 51°21.158 3°4.005 3.7 118 15.2 101590 63
2005-06-15 07:22:37 51°21.163 3°4.009 3.8 118 15.2 101590 62
2005-06-15 07:22:42 51°21.168 3°4.014 3.7 112 15.2 101590 62
2005-06-15 07:22:46 51°21.174 3°4.019 3.8 109 15.2 101590 61
2005-06-15 07:22:52 51°21.18 3°4.026 3.6 107 15.2 101590 61
2005-06-15 07:22:57 51°21.186 3°4.033 3.6 105 15.2 101590 61
2005-06-15 07:23:02 51°21.191 3°4.039 3.4 111 15.2 101590 61
2005-06-15 07:23:06 51°21.196 3°4.044 3.7 110 15.2 101590 61
2005-06-15 07:23:12 51°21.203 3°4.052 4.4 103 15.2 101590 61
2005-06-15 07:23:17 51°21.208 3°4.059 3.9 99 15.2 101590 61
2005-06-15 07:23:22 51°21.213 3°4.066 4 97 15.2 101590 60
2005-06-15 07:23:27 51°21.219 3°4.074 4.1 100 15.3 101590 63
2005-06-15 07:23:32 51°21.225 3°4.082 4.6 98 15.3 101590 63
2005-06-15 07:23:37 51°21.23 3°4.089 4.8 92 15.3 101590 62
2005-06-15 07:23:42 51°21.235 3°4.098 4.4 82 15.3 101590 62
2005-06-15 07:23:47 51°21.24 3°4.106 5.1 90 15.3 101590 62
2005-06-15 07:23:53 51°21.246 3°4.116 5.1 90 15.3 101590 62
2005-06-15 07:23:57 51°21.251 3°4.124 5.4 85 15.3 101590 62
2005-06-15 07:24:02 51°21.255 3°4.133 5 83 15.4 101590 61
2005-06-15 07:24:07 51°21.26 3°4.142 3.6 74 15.4 101590 62
2005-06-15 07:24:12 51°21.264 3°4.152 5.4 82 15.4 101590 62
2005-06-15 07:24:17 51°21.269 3°4.161 6.1 86 15.4 101590 62
2005-06-15 07:24:21 51°21.272 3°4.168 6.4 85 15.4 101590 62
2005-06-15 07:24:26 51°21.277 3°4.179 6.3 84 15.4 101590 62
2005-06-15 07:24:32 51°21.282 3°4.191 5 78 15.4 101590 63
2005-06-15 07:24:37 51°21.286 3°4.2 5.6 83 15.4 101590 63
2005-06-15 07:24:42 51°21.29 3°4.21 5.6 82 15.4 101590 63
2005-06-15 07:24:47 51°21.294 3°4.22 6.2 82 15.4 101590 62
2005-06-15 07:24:52 51°21.298 3°4.231 5.7 81 15.4 101590 62
2005-06-15 07:24:57 51°21.302 3°4.241 4.9 78 15.4 101590 62
2005-06-15 07:25:01 51°21.305 3°4.249 4.6 76 15.4 101580 62
2005-06-15 07:25:07 51°21.309 3°4.262 5 78 15.4 101590 61
2005-06-15 07:25:12 51°21.313 3°4.273 5.1 70 15.4 101590 61
2005-06-15 07:25:17 51°21.316 3°4.283 4.9 72 15.4 101590 63
2005-06-15 07:25:22 51°21.32 3°4.294 5.6 68 15.4 101590 63
2005-06-15 07:25:27 51°21.323 3°4.304 5.8 68 15.5 101590 63
2005-06-15 07:25:33 51°21.326 3°4.317 5.8 65 15.5 101590 63
2005-06-15 07:25:37 51°21.328 3°4.327 6.6 65 15.5 101590 63
2005-06-15 07:25:41 51°21.33 3°4.334 6.1 64 15.5 101590 62
2005-06-15 07:25:46 51°21.333 3°4.346 6.2 65 15.5 101590 62
2005-06-15 07:25:53 51°21.336 3°4.361 6.1 65 15.5 101590 62
2005-06-15 07:25:57 51°21.337 3°4.369 5.9 61 15.5 101590 63
2005-06-15 07:26:01 51°21.339 3°4.378 6.5 59 15.5 101590 63
2005-06-15 07:26:07 51°21.342 3°4.392 6.1 62 15.5 101590 63
2005-06-15 07:26:13 51°21.344 3°4.404 7 61 15.5 101590 61
2005-06-15 07:26:17 51°21.346 3°4.414 6.4 56 15.5 101590 62
2005-06-15 07:26:22 51°21.348 3°4.425 6.1 58 15.5 101590 62
2005-06-15 07:26:27 51°21.35 3°4.435 5.8 60 15.5 101590 62
2005-06-15 07:26:32 51°21.352 3°4.445 6.7 62 15.5 101590 62
2005-06-15 07:26:37 51°21.354 3°4.456 6 66 15.5 101590 62
2005-06-15 07:26:42 51°21.356 3°4.467 5.8 61 15.5 101590 62
2005-06-15 07:26:47 51°21.358 3°4.478 5.9 67 15.5 101590 62
2005-06-15 07:26:52 51°21.36 3°4.488 6.3 64 15.5 101580 62
2005-06-15 07:26:57 51°21.361 3°4.498 6.8 60 15.5 101590 62
2005-06-15 07:27:01 51°21.362 3°4.504 6 67 15.5 101590 62
2005-06-15 07:27:07 51°21.364 3°4.516 5.8 67 15.5 101590 62
2005-06-15 07:27:12 51°21.366 3°4.526 5.6 70 15.5 101590 62
2005-06-15 07:27:17 51°21.367 3°4.534 5.6 67 15.5 101590 60
2005-06-15 07:27:22 51°21.369 3°4.543 6.3 65 15.5 101590 60
2005-06-15 07:27:26 51°21.37 3°4.549 5.7 68 15.5 101590 61
2005-06-15 07:27:32 51°21.372 3°4.559 6.1 68 15.5 101590 61
2005-06-15 07:27:37 51°21.373 3°4.567 6.2 66 15.5 101590 61
2005-06-15 07:27:42 51°21.375 3°4.576 6.1 68 15.5 101580 62
2005-06-15 07:27:47 51°21.376 3°4.583 6.4 66 15.5 101590 62
2005-06-15 07:27:52 51°21.377 3°4.592 5.9 67 15.5 101590 62
2005-06-15 07:27:57 51°21.378 3°4.599 6 66 15.5 101590 62
2005-06-15 07:28:02 51°21.379 3°4.606 5.7 63 15.5 101590 62
2005-06-15 07:28:06 51°21.381 3°4.613 5.6 62 15.5 101590 63
2005-06-15 07:28:12 51°21.382 3°4.622 5.4 61 15.5 101590 63
2005-06-15 07:28:17 51°21.383 3°4.628 5.3 60 15.5 101590 63
2005-06-15 07:28:22 51°21.384 3°4.636 6.1 64 15.5 101590 63
2005-06-15 07:28:28 51°21.385 3°4.644 6.2 60 15.5 101590 62
2005-06-15 07:28:32 51°21.386 3°4.651 6.6 64 15.5 101590 62
2005-06-15 07:28:37 51°21.387 3°4.657 6.4 63 15.5 101590 64
2005-06-15 07:28:42 51°21.388 3°4.665 6.5 63 15.5 101590 64
2005-06-15 07:28:47 51°21.389 3°4.672 6.7 64 15.5 101590 64
2005-06-15 07:28:52 51°21.39 3°4.679 6.3 64 15.5 101590 61
2005-06-15 07:28:57 51°21.391 3°4.686 6 64 15.5 101590 59
2005-06-15 07:29:02 51°21.393 3°4.693 5.6 66 15.5 101590 59
2005-06-15 07:29:07 51°21.394 3°4.7 5.8 63 15.5 101590 59
2005-06-15 07:29:12 51°21.395 3°4.707 5.8 65 15.5 101590 59
2005-06-15 07:29:17 51°21.396 3°4.714 5.8 67 15.5 101590 59
2005-06-15 07:29:22 51°21.398 3°4.721 5.4 67 15.5 101590 59
2005-06-15 07:29:26 51°21.398 3°4.727 5.4 71 15.5 101590 59
2005-06-15 07:29:32 51°21.4 3°4.735 5.1 67 15.5 101590 60
2005-06-15 07:29:38 51°21.401 3°4.743 5.6 69 15.5 101590 60
2005-06-15 07:29:42 51°21.403 3°4.749 5.5 66 15.5 101590 60
2005-06-15 07:29:48 51°21.404 3°4.756 5.2 66 15.5 101590 60
2005-06-15 07:29:52 51°21.405 3°4.762 5.1 67 15.5 101590 60
2005-06-15 07:29:57 51°21.406 3°4.768 4.8 68 15.5 101590 62
2005-06-15 07:30:02 51°21.408 3°4.776 5.1 64 15.5 101590 62
2005-06-15 07:30:07 51°21.409 3°4.782 4.7 62 15.5 101590 62
2005-06-15 07:30:12 51°21.41 3°4.789 4.7 70 15.5 101590 62
2005-06-15 07:30:17 51°21.411 3°4.795 4.4 69 15.5 101590 62
2005-06-15 07:30:21 51°21.412 3°4.8 5 68 15.5 101590 63
2005-06-15 07:30:26 51°21.414 3°4.807 4.8 67 15.6 101590 63
2005-06-15 07:30:32 51°21.415 3°4.815 5.1 66 15.6 101590 63
2005-06-15 07:30:37 51°21.416 3°4.822 5.1 65 15.6 101590 63
2005-06-15 07:30:42 51°21.417 3°4.828 4.9 63 15.6 101590 65
2005-06-15 07:30:47 51°21.419 3°4.835 4.8 67 15.6 101590 64
2005-06-15 07:30:52 51°21.42 3°4.841 5.2 62 15.6 101590 64
2005-06-15 07:30:57 51°21.421 3°4.847 5.5 66 15.6 101590 64
2005-06-15 07:31:02 51°21.422 3°4.854 5 66 15.6 101590 64
2005-06-15 07:31:06 51°21.423 3°4.859 5.7 65 15.6 101590 65
2005-06-15 07:31:12 51°21.425 3°4.866 4.7 69 15.6 101590 65
2005-06-15 07:31:17 51°21.426 3°4.873 5.2 70 15.6 101590 63
2005-06-15 07:31:21 51°21.426 3°4.879 4.9 69 15.6 101590 63
2005-06-15 07:31:27 51°21.428 3°4.887 5.5 65 15.6 101590 63
2005-06-15 07:31:32 51°21.429 3°4.893 4.9 67 15.6 101590 63
2005-06-15 07:31:37 51°21.43 3°4.899 5.5 68 15.5 101590 62
2005-06-15 07:31:41 51°21.431 3°4.905 4.9 66 15.5 101590 62
2005-06-15 07:31:47 51°21.432 3°4.912 5.2 69 15.5 101590 62
2005-06-15 07:31:52 51°21.434 3°4.919 4.7 67 15.5 101590 62
2005-06-15 07:31:57 51°21.435 3°4.925 5 70 15.5 101590 63
2005-06-15 07:32:02 51°21.436 3°4.932 4.7 67 15.5 101590 63
2005-06-15 07:32:06 51°21.437 3°4.938 4.9 67 15.6 101600 64
2005-06-15 07:32:12 51°21.438 3°4.946 4.9 67 15.6 101600 64
2005-06-15 07:32:17 51°21.439 3°4.952 4.9 69 15.6 101590 63
2005-06-15 07:32:22 51°21.44 3°4.958 4.8 63 15.6 101590 63
2005-06-15 07:32:26 51°21.441 3°4.964 5.1 66 15.5 101590 62
2005-06-15 07:32:32 51°21.442 3°4.972 5.1 67 15.5 101590 62
2005-06-15 07:32:37 51°21.443 3°4.979 5.2 68 15.5 101590 62
2005-06-15 07:32:42 51°21.444 3°4.986 5 67 15.6 101590 63
2005-06-15 07:32:47 51°21.445 3°4.992 5.5 64 15.6 101590 63
2005-06-15 07:32:52 51°21.447 3°4.999 5.3 65 15.6 101590 63
2005-06-15 07:32:57 51°21.447 3°5.005 5.4 63 15.6 101590 62
2005-06-15 07:33:01 51°21.448 3°5.01 4.7 66 15.6 101590 62
2005-06-15 07:33:07 51°21.449 3°5.018 4.6 66 15.6 101590 61
2005-06-15 07:33:13 51°21.45 3°5.026 4.9 65 15.6 101590 61
2005-06-15 07:33:17 51°21.451 3°5.031 5.3 66 15.6 101590 61
2005-06-15 07:33:22 51°21.452 3°5.038 5.3 60 15.6 101590 61
2005-06-15 07:33:27 51°21.453 3°5.046 5 67 15.6 101590 61
2005-06-15 07:33:32 51°21.454 3°5.052 5 65 15.6 101590 63
2005-06-15 07:33:37 51°21.455 3°5.058 5.1 68 15.6 101590 63
2005-06-15 07:33:42 51°21.456 3°5.066 5.3 64 15.6 101590 63
2005-06-15 07:33:46 51°21.457 3°5.071 5.9 65 15.6 101590 63
2005-06-15 07:33:52 51°21.458 3°5.079 5.3 62 15.6 101590 63
2005-06-15 07:33:57 51°21.459 3°5.085 5.3 64 15.6 101590 63
2005-06-15 07:34:02 51°21.46 3°5.093 5.2 62 15.6 101590 63
2005-06-15 07:34:06 51°21.461 3°5.098 4.6 71 15.6 101590 62
2005-06-15 07:34:12 51°21.462 3°5.106 5.7 66 15.6 101590 62
2005-06-15 07:34:17 51°21.462 3°5.112 5.7 67 15.6 101590 62
2005-06-15 07:34:22 51°21.464 3°5.119 5.5 65 15.6 101590 62
2005-06-15 07:34:27 51°21.465 3°5.126 5.5 67 15.6 101590 63
2005-06-15 07:34:32 51°21.466 3°5.133 5 70 15.6 101590 63
2005-06-15 07:34:37 51°21.466 3°5.139 5.3 69 15.6 101590 61
2005-06-15 07:34:42 51°21.468 3°5.145 4.8 73 15.6 101590 61
2005-06-15 07:34:47 51°21.468 3°5.152 4.9 66 15.6 101590 61
2005-06-15 07:34:52 51°21.47 3°5.16 5.4 68 15.6 101590 61
2005-06-15 07:34:57 51°21.47 3°5.165 5.7 63 15.6 101590 61
2005-06-15 07:35:02 51°21.471 3°5.173 5.4 68 15.6 101590 60
2005-06-15 07:35:07 51°21.472 3°5.18 4.7 70 15.6 101590 60
2005-06-15 07:35:12 51°21.473 3°5.186 6.4 64 15.6 101590 60
2005-06-15 07:35:17 51°21.474 3°5.192 5.7 62 15.6 101590 61
2005-06-15 07:35:22 51°21.475 3°5.199 5.3 69 15.6 101590 61
2005-06-15 07:35:27 51°21.476 3°5.205 5.1 68 15.6 101590 61
2005-06-15 07:35:32 51°21.477 3°5.212 5.9 66 15.7 101590 61
2005-06-15 07:35:37 51°21.478 3°5.218 5.6 65 15.7 101590 60
2005-06-15 07:35:42 51°21.479 3°5.226 6.3 65 15.7 101590 60
2005-06-15 07:35:47 51°21.48 3°5.232 5.7 64 15.7 101590 61
2005-06-15 07:35:52 51°21.48 3°5.239 5.2 65 15.7 101590 61
2005-06-15 07:35:57 51°21.481 3°5.245 5.3 65 15.7 101590 59
2005-06-15 07:36:02 51°21.482 3°5.251 5.5 69 15.7 101590 59
2005-06-15 07:36:06 51°21.483 3°5.257 5.8 64 15.7 101590 60
2005-06-15 07:36:12 51°21.484 3°5.265 6 66 15.7 101590 60
2005-06-15 07:36:17 51°21.486 3°5.271 6 63 15.7 101590 60